JA3VQW-13 Weather Reports


time (UTC)temp
F
wind
direction
speed
knots
gust
knots
rain 1hr
in
rain 24hr
in
rain mn
in
humidity
%
barometer
mb
20260505101131 68 270 0.0 0.0 0.00 0.00 0.00 23 1010.0
20260505100618 68 270 0.0 0.0 0.00 0.00 0.00 24 1010.0
20260505095631 69 270 0.0 0.0 0.00 0.00 0.00 27 1010.0
20260505093618 70 135 2.6 5.2 0.00 0.00 0.00 25 1010.0
20260505091132 74 225 0.9 1.7 0.00 0.00 0.00 21 1009.0
20260505090617 75 259 1.7 1.7 0.00 0.00 0.00 21 1009.0
20260505085632 76 239 0.9 2.6 0.00 0.00 0.00 18 1009.0
20260505084132 78 152 0.9 1.7 0.00 0.00 0.00 15 1009.0
20260505083617 78 139 0.9 0.0 0.00 0.00 0.00 15 1010.0
20260505082632 79 315 1.7 2.6 0.00 0.00 0.00 15 1010.0
20260505081132 82 312 1.7 2.6 0.00 0.00 0.00 14 1010.0
20260505080619 82 270 0.9 4.3 0.00 0.00 0.00 14 1010.0
20260505075631 84 290 0.0 1.7 0.00 0.00 0.00 14 1010.0
20260505074132 85 315 1.7 2.6 0.00 0.00 0.00 13 1009.0
20260505073618 86 315 0.0 2.6 0.00 0.00 0.00 13 1009.0
20260505072631 87 315 0.0 1.7 0.00 0.00 0.00 13 1009.0
20260505071131 87 315 0.0 0.0 0.00 0.00 0.00 13 1009.0
20260505070619 87 315 0.0 0.0 0.00 0.00 0.00 13 1009.0
20260505065631 86 315 0.0 0.0 0.00 0.00 0.00 13 1009.0
20260505064131 84 315 0.9 2.6 0.00 0.00 0.00 13 1009.0
20260505063618 84 315 0.0 1.7 0.00 0.00 0.00 13 1009.0
20260505062631 86 296 0.9 4.3 0.00 0.00 0.00 13 1009.0
20260505061131 85 180 0.0 1.7 0.00 0.00 0.00 13 1009.0
20260505060618 84 180 0.0 0.0 0.00 0.00 0.00 14 1009.0
20260505054132 82 225 0.0 0.0 0.00 0.00 0.00 14 1009.0
20260505053617 81 225 0.0 0.0 0.00 0.00 0.00 14 1009.0
20260505052632 83 180 0.0 0.0 0.00 0.00 0.00 14 1009.0
20260505051132 83 180 0.0 1.7 0.00 0.00 0.00 14 1009.0
20260505050618 83 180 0.0 0.0 0.00 0.00 0.00 14 1009.0
20260505040618 77 225 0.0 1.7 0.00 0.00 0.00 15 1010.0
20260505033618 74 225 0.0 1.7 0.00 0.00 0.00 16 1010.0
20260505030617 73 140 1.7 0.0 0.00 0.00 0.00 16 1010.0
20260505025630 72 225 0.0 0.0 0.00 0.00 0.00 16 1010.0
20260505024131 71 225 0.0 1.7 0.00 0.00 0.00 17 1011.0
20260505023618 71 180 0.0 0.0 0.00 0.00 0.00 17 1011.0
20260505022631 69 270 0.0 0.0 0.00 0.00 0.00 20 1011.0
20260505021131 68 270 0.0 0.0 0.00 0.00 0.00 20 1011.0
20260505020618 68 270 0.0 0.0 0.00 0.00 0.00 20 1011.0
20260505015630 67 270 0.0 0.0 0.00 0.00 0.00 20 1011.0
20260505013616 66 270 0.0 0.0 0.00 0.00 0.00 23 1012.0
20260505012631 65 180 0.0 0.0 0.00 0.00 0.00 23 1012.0
20260505011131 64 270 0.0 0.0 0.00 0.00 0.00 24 1012.0
20260505010618 64 270 0.0 0.0 0.00 0.00 0.00 24 1012.0
20260505005632 64 270 0.0 0.0 0.00 0.00 0.00 25 1012.0
20260505004132 62 315 0.0 0.0 0.00 0.00 0.00 27 1012.0
20260505003617 62 315 0.0 0.0 0.00 0.00 0.00 28 1012.0
20260505002632 62 315 0.0 0.0 0.00 0.00 0.00 29 1012.0
20260505001131 61 180 0.0 0.0 0.00 0.00 0.00 28 1012.0
20260505000616 61 180 0.0 0.0 0.00 0.00 0.00 28 1012.0
20260504235630 60 180 0.0 1.7 0.00 0.00 0.00 32 1012.0
20260504234130 59 180 0.0 0.0 0.00 0.00 0.00 34 1012.0
20260504233617 59 180 0.0 0.0 0.00 0.00 0.00 35 1012.0
20260504232631 59 180 0.0 0.0 0.00 0.00 0.00 36 1012.0
20260504231131 58 180 0.0 0.0 0.00 0.00 0.00 39 1012.0
20260504230616 57 180 0.0 0.0 0.00 0.00 0.00 39 1012.0
20260504225631 57 135 0.0 0.0 0.00 0.00 0.00 41 1012.0
20260504224130 56 135 0.0 0.0 0.00 0.00 0.00 45 1012.0
20260504223616 56 135 0.0 0.0 0.00 0.00 0.00 45 1012.0
20260504222632 56 135 0.0 0.0 0.00 0.00 0.00 46 1012.0
20260504221131 55 135 0.0 0.0 0.00 0.00 0.00 48 1011.0
20260504220616 55 135 0.0 0.0 0.00 0.00 0.00 48 1012.0
20260504215631 54 135 0.0 0.0 0.00 0.00 0.00 49 1012.0
20260504214130 53 135 0.0 0.0 0.00 0.00 0.00 53 1011.0
20260504213617 53 135 0.0 0.0 0.00 0.00 0.00 54 1012.0
20260504212632 53 135 0.0 0.0 0.00 0.00 0.00 56 1012.0
20260504211131 52 135 0.0 0.0 0.00 0.00 0.00 58 1011.0
20260504210616 52 135 0.0 0.0 0.00 0.00 0.00 59 1010.0
20260504205631 51 135 0.0 0.0 0.00 0.00 0.00 58 1010.0
20260504204130 51 135 0.0 0.0 0.00 0.00 0.00 58 1010.0
20260504203617 51 135 0.0 0.0 0.00 0.00 0.00 59 1010.0
20260504202630 51 135 0.0 0.0 0.00 0.00 0.00 60 1010.0
20260504201129 51 135 0.0 0.0 0.00 0.00 0.00 61 1010.0
20260504200617 51 135 0.0 0.0 0.00 0.00 0.00 60 1009.0
20260504195631 51 135 0.0 0.0 0.00 0.00 0.00 60 1009.0
20260504194129 51 135 0.0 0.0 0.00 0.00 0.00 59 1009.0
20260504193616 51 135 0.0 0.0 0.00 0.00 0.00 58 1009.0
20260504192631 51 135 0.0 0.0 0.00 0.00 0.00 57 1009.0
20260504191131 51 135 0.0 0.0 0.00 0.04 0.00 56 1009.0
20260504190616 51 135 0.0 0.0 0.00 0.04 0.00 55 1009.0
20260504185630 51 135 0.0 0.0 0.00 0.04 0.00 54 1009.0
20260504184131 52 270 0.0 1.7 0.00 0.12 0.00 51 1009.0
20260504183616 53 270 0.0 0.0 0.00 0.21 0.00 50 1009.0
20260504182631 53 270 0.0 0.0 0.00 0.29 0.00 49 1009.0
20260504181131 54 270 0.0 0.0 0.00 0.33 0.00 48 1008.0
20260504180616 54 270 0.0 0.0 0.00 0.33 0.00 47 1009.0
20260504175630 54 270 0.0 0.0 0.00 0.50 0.00 47 1009.0
20260504174129 54 315 1.7 2.6 0.00 0.67 0.00 46 1008.0
20260504173615 54 315 0.0 1.7 0.00 0.75 0.00 46 1008.0
20260504172630 54 270 0.0 0.0 0.00 0.87 0.00 45 1008.0
20260504171130 55 270 0.0 0.0 0.00 1.04 0.00 44 1008.0
20260504170617 55 315 0.0 0.0 0.00 1.08 0.00 44 1008.0
20260504151130 56 315 5.2 7.0 0.00 1.29 0.00 41 1007.0
20260504150617 57 315 0.9 2.6 0.00 1.29 0.00 41 1007.0
20260504141129 57 315 1.7 2.6 0.00 1.92 1.29 42 1007.0
20260504140616 57 270 0.0 1.7 0.00 1.92 1.29 41 1007.0
20260504130616 58 270 0.0 4.3 0.00 2.29 1.29 39 1006.0
20260504110618 60 310 5.2 5.2 0.00 2.41 1.29 36 1004.0